Riverside March, CA

6:40 PM PDT on May 22, 2018 (GMT -0700)
March Air Reserve Base

Weather History for KRIV - February, 2014

Change the Weather History Date:

Tuesday, February 18, 2014

  Actual Average Record
Temperature  
Mean Temperature 57 °F -  
Max Temperature 70 °F 62 °F 79 °F (2015)
Min Temperature 44 °F 41 °F 30 °F (2012)
Degree Days  
Heating Degree Days 8    
Growing Degree Days 7 (Base 50)    
Moisture  
Dew Point 45 °F    
Average Humidity 85    
Maximum Humidity 100    
Minimum Humidity 31    
Precipitation  
Precipitation 0.00 in - - ()
Sea Level Pressure  
Sea Level Pressure 30.03 in    
Wind  
Wind Speed 4 mph (East)    
Max Wind Speed 12 mph    
Max Gust Speed -    
Visibility 4 miles    
Events Fog    
Averages and records for this station are not official NWS values.
T = Trace of Precipitation, MM = Missing Value Source: NWS Daily Summary

Daily Weather History Graph

Daily Weather History Graph

Search for Another Location

Airport or City:

Astronomy

Feb. 18, 2014 Rise Set
Actual Time 6:30 AM PST 5:36 PM PST
Civil Twilight 6:04 AM PST 6:01 PM PST
Nautical Twilight 5:35 AM PST 6:30 PM PST
Astronomical Twilight 5:06 AM PST 6:59 PM PST
Moon 9:20 PM PST (2/18) 8:16 AM PST (2/18)
Length of Visible Light 11h 56m
Length of Day
11h 05m
Waning Gibbous, 86% of the Moon is Illuminated
Feb 18
Waning Gibbous
Feb 22
Last Quarter
Mar 1
New
Mar 8
First Quarter
Mar 16
Full

Hourly Weather History & Observations

Time (PST) Temp. Windchill Dew Point Humidity Pressure Visibility Wind Dir Wind Speed Gust Speed Precip Events Conditions
12:13 AM 50.0 °F - 48.2 °F 94% 30.05 in 7.0 mi SSE 8.1 mph - N/A   Overcast
12:58 AM 48.9 °F - 46.9 °F 93% 30.04 in 10.0 mi SSE 6.9 mph - N/A   Overcast
1:15 AM 48.2 °F - 44.6 °F 87% 30.05 in 10.0 mi SSE 4.6 mph - N/A   Overcast
1:21 AM 46.4 °F 44.3 °F 44.6 °F 93% 30.05 in 10.0 mi SSE 4.6 mph - N/A   Mostly Cloudy
1:28 AM 46.4 °F 45.2 °F 44.6 °F 93% 30.05 in 10.0 mi SE 3.5 mph - N/A   Mostly Cloudy
1:58 AM 46.4 °F 44.3 °F 45.0 °F 95% 30.02 in 3.0 mi ENE 4.6 mph - N/A   Mostly Cloudy
2:18 AM 46.4 °F 42.9 °F 44.6 °F 93% 30.04 in 1.0 mi NE 6.9 mph - N/A   Overcast
2:22 AM 46.4 °F 44.3 °F 44.6 °F 93% 30.04 in 2.0 mi NE 4.6 mph - N/A   Overcast
2:28 AM 46.4 °F 43.5 °F 44.6 °F 93% 30.04 in 3.0 mi ENE 5.8 mph - N/A   Overcast
2:43 AM 46.4 °F - 44.6 °F 93% 30.03 in 9.0 mi NE 2.3 mph - N/A   Overcast
2:58 AM 46.9 °F - 45.5 °F 95% 30.01 in 7.0 mi NNE 5.8 mph - N/A   Overcast
3:05 AM 46.4 °F 45.2 °F 44.6 °F 93% 30.03 in 2.0 mi NNE 3.5 mph - N/A   Overcast
3:08 AM 46.4 °F 43.5 °F 44.6 °F 93% 30.03 in 1.2 mi NNE 5.8 mph - N/A   Overcast
3:18 AM 46.4 °F 44.3 °F 46.4 °F 100% 30.03 in 1.2 mi NNE 4.6 mph - N/A   Overcast
3:40 AM 46.4 °F 45.2 °F 46.4 °F 100% 30.02 in 0.8 mi East 3.5 mph - N/A   Overcast
3:45 AM 46.4 °F - 46.4 °F 100% 30.02 in 0.5 mi Variable 1.2 mph - N/A Fog Fog
3:50 AM 46.4 °F - 46.4 °F 100% 30.02 in 0.2 mi Calm Calm - N/A Fog Fog
3:58 AM 46.4 °F - 45.7 °F 97% 30.01 in 0.2 mi SE 2.3 mph - N/A Fog Fog
4:18 AM 46.4 °F - 44.6 °F 93% 30.02 in 0.2 mi Calm Calm - N/A Fog Fog
4:28 AM 46.4 °F - 46.4 °F 100% 30.02 in 0.2 mi Calm Calm - N/A Fog Fog
4:58 AM 46.0 °F - 45.5 °F 98% 30.02 in 0.2 mi Calm Calm - N/A Fog Fog
5:08 AM 46.4 °F - 46.4 °F 100% 30.03 in 0.5 mi NNW 1.2 mph - N/A Fog Fog
5:28 AM 46.4 °F - 44.6 °F 93% 30.04 in 0.2 mi Calm Calm - N/A Fog Fog
5:50 AM 46.4 °F - 46.4 °F 100% 30.04 in 0.2 mi Calm Calm - N/A Fog Fog
5:58 AM 46.0 °F - 45.5 °F 98% 30.03 in 0.2 mi South 2.3 mph - N/A Fog Fog
6:17 AM 44.6 °F 43.1 °F 44.6 °F 100% 30.03 in 0.2 mi East 3.5 mph - N/A Fog Fog
6:35 AM 44.6 °F 42.2 °F 44.6 °F 100% 30.04 in 0.2 mi SSE 4.6 mph - N/A Fog Fog
6:58 AM 45.7 °F 43.4 °F 45.5 °F 99% 30.05 in 0.2 mi East 4.6 mph - N/A Fog Fog
7:38 AM 44.6 °F - 44.6 °F 100% 30.05 in 0.2 mi SE 2.3 mph - N/A Fog Fog
7:43 AM 44.6 °F 43.1 °F 44.6 °F 100% 30.05 in 0.2 mi South 3.5 mph - N/A Fog Fog
7:53 AM 44.6 °F - 44.6 °F 100% 30.06 in 0.2 mi South 2.3 mph - N/A Fog Fog
7:58 AM 45.5 °F 44.2 °F 45.1 °F 99% 30.06 in 0.2 mi SSE 3.5 mph - N/A Fog Fog
8:20 AM 44.6 °F - 44.6 °F 100% 30.07 in 0.3 mi Calm Calm - N/A Fog Fog
8:38 AM 46.4 °F - 44.6 °F 93% 30.06 in 0.4 mi Calm Calm - N/A Fog Fog
8:58 AM 46.2 °F - 46.0 °F 99% 30.06 in 0.4 mi Calm Calm - N/A Fog Fog
9:06 AM 46.4 °F - 46.4 °F 100% 30.06 in 1.0 mi Variable 1.2 mph - N/A   Mostly Cloudy
9:09 AM 46.4 °F - 46.4 °F 100% 30.06 in 1.2 mi Calm Calm - N/A   Mostly Cloudy
9:17 AM 46.4 °F - 46.4 °F 100% 30.06 in 3.0 mi Calm Calm - N/A   Mostly Cloudy
9:25 AM 46.4 °F - 46.4 °F 100% 30.06 in 7.0 mi Calm Calm - N/A   Mostly Cloudy
9:58 AM 49.5 °F - 43.9 °F 81% 30.06 in 10.0 mi Variable 2.3 mph - N/A   Mostly Cloudy
10:58 AM 57.0 °F - 42.4 °F 58% 30.04 in 10.0 mi East 4.6 mph - N/A   Mostly Cloudy
11:58 AM 66.6 °F - 35.4 °F 32% 30.01 in 10.0 mi Variable 1.2 mph - N/A   Clear
12:58 PM 69.8 °F - 41.5 °F 36% 29.99 in 10.0 mi WNW 10.4 mph - N/A   Mostly Cloudy
1:58 PM 69.6 °F - 39.2 °F 33% 29.98 in 10.0 mi NW 5.8 mph - N/A   Mostly Cloudy
2:58 PM 70.9 °F - 40.1 °F 33% 29.97 in 10.0 mi West 5.8 mph - N/A   Mostly Cloudy
3:58 PM 69.3 °F - 37.0 °F 31% 29.95 in 10.0 mi NW 3.5 mph - N/A   Mostly Cloudy
4:58 PM 68.4 °F - 37.9 °F 33% 29.96 in 10.0 mi NW 11.5 mph - N/A   Mostly Cloudy
5:58 PM 63.9 °F - 44.4 °F 49% 29.96 in 10.0 mi WNW 8.1 mph - N/A   Mostly Cloudy
6:58 PM 60.3 °F - 45.7 °F 59% 29.99 in 10.0 mi West 5.8 mph - N/A   Clear
7:58 PM 56.1 °F - 45.7 °F 68% 30.01 in 10.0 mi WNW 5.8 mph - N/A   Clear
8:58 PM 55.4 °F - 47.3 °F 74% 30.01 in 10.0 mi NNW 6.9 mph - N/A   Clear
9:58 PM 53.8 °F - 47.5 °F 79% 30.03 in 10.0 mi WSW 2.3 mph - N/A   Clear
10:58 PM 53.2 °F - 46.9 °F 79% 30.00 in 10.0 mi Calm Calm - N/A   Clear
11:58 PM 51.3 °F - 45.1 °F 80% 29.98 in 10.0 mi Calm Calm - N/A   Clear